Location: Newark
(48.1500°N, 2.9667°W)
Time: 21:56:59
(UTC+00:00)

Altair - Pass Details

Date: 02 February 2020
Orbit: 1502 x 1682 km, 47.2° (Epoch: 19 February)

Event Time Altitude Azimuth Distance (km) Brightness Sun altitude
Rises 06:27:32 0° 223° (SW) 4,811 9.8 -12.2°
Reaches altitude 10° 06:30:43 10° 218° (SW) 3,851 9.3 -11.7°
Maximum altitude 06:40:07 51° 146° (SSE) 2,012 8.5 -10.2°
Drops below altitude 10° 06:49:45 10° 75° (ENE) 3,948 10.7 -8.6°
Sets 06:53:02 0° 71° (ENE) 4,940 11.2 -8.1°
